Regional Weather Roundup
Issued by NWS

Home | Current Version | Previous Version | Text Only | Print | Product List | Glossary Off
Versions: 1 2 3 4 5 6 7 8 9 10 11 12 13 14 15 16 17 18 19 20 21 22 23 24 25 26 27 28 29 30 31 32 33 34 35 36 37 38 39 40 41 42 43 44 45 46 47 48 49 50

000
ASUS43 KMPX 110401
RWRMN
WEATHER ROUNDUP FOR MINNESOTA
NATIONAL WEATHER SERVICE TWIN CITIES/CHANHASSEN MN
1000 PM CST WED FEB 10 2016


NOTE: "FAIR" INDICATES FEW OR NO CLOUDS BELOW 12,000 FEET WITH NO
SIGNIFICANT WEATHER AND/OR OBSTRUCTIONS TO VISIBILITY. N/A MEANS
CURRENT SKY AND/OR WEATHER CONDITIONS ARE NOT AVAILABLE.

MNZ060>063-068>070-110500-
   Twin Cities Metro

CITY           SKY/WX    TMP DP  RH WIND       PRES   REMARKS
TWIN CITIES    CLOUDY    11  -2  56 N5        30.26R WCI   3
ST PAUL        CLOUDY    10  -3  55 NW5       30.28R WCI   2
CRYSTAL        CLOUDY    11  -4  51 CALM      30.25R
BLAINE         CLOUDY    10   0  61 NW3       30.24R
LAKEVILLE      CLOUDY     9   0  66 N3        30.23S
EDEN PRAIRIE   CLOUDY    12  -3  51 N5        30.24R WCI   4
SOUTH ST PAUL  CLOUDY    11  -2  56 N3        30.26R
LAKE ELMO      CLOUDY    10   0  61 W3        30.25R
$$
MNZ001>005-007-008-013>017-022>024-027-028-110500-
   Northwest Minnesota

CITY           SKY/WX    TMP DP  RH WIND       PRES   REMARKS
BEMIDJI        CLOUDY    -6 -10  81 CALM      30.22F
HALLOCK        CLOUDY    -2  -8  78 CALM      30.30F
ROSEAU         CLOUDY    -9 -17  70 SW5       30.28R WCI -21
WARROAD        CLOUDY   -13 -18  77 SW5       30.26S WCI -25
THIEF RVR FALL CLOUDY     1 -17  42 CALM      30.28S
CROOKSTON      CLOUDY     3  -2  78 CALM      30.31S
FOSSTON        CLOUDY    -8 -13  77 CALM      30.25F
DETROIT LAKES  CLOUDY     9   3  78 CALM      30.23S
MOORHEAD       CLOUDY     9   1  72 N7        30.29R WCI  -3
PARK RAPIDS    CLEAR      4  -7  60 N8        30.21R WCI  -9
MAHNOMEN       FAIR       0  -6  76 NE8       30.24S WCI -14
$$
MNZ006-009>011-018-025>026-110500-
   North Central Minnesota

CITY           SKY/WX    TMP DP  RH WIND       PRES   REMARKS
BAUDETTE       CLOUDY   -17 -23  73 CALM      30.23S HAZE
FLAG ISLAND    CLOUDY    -8 -15  71 CALM      30.25F
INTL FALLS     PTCLDY   -14 -19  79 CALM      30.23R
WASKISH        CLOUDY   -13 -17  84 W3        30.24S
LONGVILLE      CLOUDY     1  -8  66 N5        30.23R WCI  -8
GRAND RAPIDS   CLOUDY    -2 -11  65 N6        30.20S WCI -14
CRANE LAKE     CLOUDY   -20 -26  76 CALM      30.24R
ORR            CLOUDY    -9 -17  70 CALM      30.18R
COOK           PTCLDY   -15 -18  84 CALM      30.20S
WALKER         FAIR       0  -8  69 N3        30.22S
$$
MNZ012-019>021-037-110500-
   Northeast Minnesota

CITY           SKY/WX    TMP DP  RH WIND       PRES   REMARKS
DULUTH         CLEAR     -1 -11  62 N12       30.17R WCI -18
ELY            CLOUDY   -17 -20  83 W3        30.17S
HIBBING        CLOUDY   -12 -16  82 CALM      30.19S
EVELETH        PTCLDY    -2  -9  71 NW6       30.20R WCI -14
DULUTH HARBOR  PTCLDY     7  -6  56 N5        30.27R WCI  -2
TWO HARBORS    CLEAR      1  -8  66 NW3       30.17R
SILVER BAY     CLEAR      0  -9  65 NW6       30.16R WCI -12
GRAND MARAIS     N/A      4  -6  63 VRB5      30.19R WCI  -5
G MARAIS ARPRT CLEAR     -6 -13  71 NW16      30.06R WCI -28
$$
MNZ029>031-032-039>041-046>048-054>057-064-110500-
   West Central Minnesota

CITY           SKY/WX    TMP DP  RH WIND       PRES   REMARKS
FERGUS FALLS   CLOUDY    10   3  72 CALM      30.28R
WHEATON        MOCLDY     7   3  85 CALM      30.29R
MORRIS         CLOUDY    10   3  72 NW5       30.24R WCI   2
ALEXANDRIA     CLOUDY     9  -2  61 N3        30.21S
ELBOW LAKE     CLOUDY    10   3  71 CALM      30.25R
WADENA         CLOUDY     7  -2  66 CALM      30.22R
GLENWOOD       CLOUDY     9   0  66 CALM      30.23R
APPLETON       CLOUDY     9   3  78 NW6       30.27R WCI  -1
BENSON         CLOUDY     9   1  72 CALM      30.25R
ORTONVILLE     CLOUDY    10   5  79 NW3       30.26S
MADISON        CLOUDY    14   7  73 N5        30.27R WCI   6
WILLMAR        CLOUDY    12   3  67 CALM      30.25R
$$
MNZ033>034-036-042>043-049>051-058-059-110500-
   Central Minnesota

CITY           SKY/WX    TMP DP  RH WIND       PRES   REMARKS
ST CLOUD       CLOUDY    10  -3  55 CALM      30.24R
SAUK CENTRE    CLOUDY     9  -3  58 CALM      30.23S
PAYNESVILLE    CLOUDY     9   0  64 CALM      30.24S
AITKIN         CLEAR      0 -11  60 N3        30.21S
PINE RIVER     CLEAR      0  -8  71 CALM      30.25R
BRAINERD       MOCLDY     4  -6  63 N5        30.22R WCI  -5
STAPLES        CLOUDY     5  -6  61 CALM      30.23R
LONG PRAIRIE   CLOUDY    10  -2  56 CALM      30.22S
LITTLE FALLS   CLOUDY     9  -6  52 CALM      30.24
LITCHFIELD     CLOUDY    10   3  72 CALM      30.25R
BUFFALO        CLOUDY    10  -2  56 CALM      30.26S
MAPLE LAKE     MOCLDY    12   1  63 N3        30.25S
$$
MNZ037-044-045-052-053-110500-
   East Central Minnesota

CITY           SKY/WX    TMP DP  RH WIND       PRES   REMARKS
PRINCETON      CLOUDY    10  -4  52 CALM      30.24R
MORA           CLOUDY     7  -4  61 NW3       30.24S
CAMBRIDGE      CLOUDY     9  -2  61 CALM      30.23R
RUSH CITY      MOCLDY     7  -5  58 N3        30.24R
MOOSE LAKE     PTCLDY     1  -9  60 N5        30.21R WCI  -8
HINCKLEY       FAIR       5  -8  56 N5        30.23R WCI  -4
CLOQUET        CLEAR      0 -11  60 NW8       30.19R WCI -15
MCGREGOR       CLEAR      3  -6  66 NW5       30.23R WCI  -6
$$
MNZ071>073-080-081-089-090-097-098-110500-
   Southwest Minnesota

CITY           SKY/WX    TMP DP  RH WIND       PRES   REMARKS
MONTEVIDEO     CLOUDY     9   1  72 CALM      30.28R
GRANITE FALLS  CLOUDY    13   6  73 NW5       30.28R WCI   5
CANBY          CLOUDY    16  11  82 N5        30.27R WCI   8
MARSHALL       FLURRIES  13   7  77 N7        30.25R WCI   3
REDWOOD FALLS  CLOUDY    13   4  67 CALM      30.25R
OLIVIA         CLOUDY    14   7  73 N5        30.24R WCI   6
PIPESTONE      CLOUDY    12   1  62 NE8       30.18R WCI   1
WINDOM         CLOUDY    10   3  72 CALM      30.20R
WORTHINGTON    CLOUDY    10   3  72 NE10      30.20R WCI  -3
JACKSON        CLOUDY    12   3  67 N8        30.19S WCI   1
TRACY          CLOUDY    13   7  76 N5        30.23R WCI   6
SLAYTON        CLOUDY    10   7  85 N6        30.20R WCI   1
$$
MNZ065>067-074>077-082>085-091>093-110500-
   South Central Minnesota

CITY           SKY/WX    TMP DP  RH WIND       PRES   REMARKS
MANKATO        CLOUDY    10   0  61 N8        30.23R WCI  -1
NEW ULM        CLOUDY    10   1  67 NE3       30.23S
ST JAMES       CLOUDY    12   7  79 N5        30.24S WCI   4
FAIRMONT       CLOUDY     9   1  72 CALM      30.20R
GLENCOE        CLOUDY    12   2  65 CALM      30.24R
FARIBAULT        N/A      9   0  66 CALM      30.23R
OWATONNA       CLOUDY     9  -2  61 NE5       30.22R WCI   0
WASECA         CLOUDY    10   1  67 N3        30.23S
ALBERT LEA     CLOUDY     7   0  72 CALM      30.20S
$$
MNZ078>079-086>088-094>096-110500-
   Southeast Minnesota

CITY           SKY/WX    TMP DP  RH WIND       PRES   REMARKS
ROCHESTER      CLOUDY     6  -3  66 N7        30.18S WCI  -6
RED WING       CLOUDY     9  -2  61 N3        30.24S
STANTON        CLOUDY    10  -1  62 CALM      30.23R
DODGE CENTER   CLOUDY     7  -2  66 N5        30.19R WCI  -2
WINONA         CLOUDY    10   1  67 NW3       30.25R
AUSTIN         CLOUDY     7  -2  66 N6        30.20R WCI  -3
PRESTON        CLOUDY     5  -3  68 N3        30.19R
$$
ABBREVIATIONS USED IN REMARKS
   TC - TEMPERATURES IN CELSIUS
  WCI - WIND CHILL INDEX
   HX - HEAT INDEX
  VSB - VISIBILITY
$$



USA.gov is the U.S. government's official web portal to all federal, state and local government web resources and services.